Read MPEC 2006-M14
Read MPEC 2006-M16
M.P.E.C. 2006-M15 Issued 2006 June 20, 16:35 UT
The Minor Planet Electronic Circulars contain information on unusual
minor planets and routine data on comets. They are published
on behalf of Commission 20 of the International Astronomical Union by the
Minor Planet Center, Smithsonian Astrophysical Observatory,
Cambridge, MA 02138, U.S.A.
Supported in part by the Brinson Foundation
Supported in part by the TABASGO Foundation
Prepared using the Tamkin Foundation Computer Network
MPC@CFA.HARVARD.EDU
URL http://cfa-www.harvard.edu/iau/mpc.html ISSN 1523-6714
2006 MV1
Observations:
K06M01V* C2006 06 19.22909 15 53 00.97 -03 38 37.9 17.5 EM015704
K06M01V C2006 06 19.23908 15 53 13.61 -03 30 56.0 17.7 EM015704
K06M01V C2006 06 19.24909 15 53 26.40 -03 23 10.4 17.8 EM015704
K06M01V C2006 06 19.25918 15 53 39.29 -03 15 18.5 18.4 EM015704
K06M01V C2006 06 20.22154 16 26 35.44 +12 06 24.3 17.5 V EM015703
K06M01V C2006 06 20.22183 16 26 36.16 +12 06 45.5 17.7 V EM015703
K06M01V C2006 06 20.22212 16 26 36.74 +12 07 04.8 17.5 V EM015703
K06M01V C2006 06 20.22241 16 26 37.35 +12 07 24.4 18.1 V EM015703
Observer details:
703 Catalina Sky Survey. Observer R. E. Hill. Measurers E. C. Beshore,
E. J. Christensen, G. J. Garradd, A. R. Gibbs, A. D. Grauer, R. E. Hill,
R. A. Kowalski, S. M. Larson, R. H. McNaught. 0.68-m Schmidt + CCD.
704 Lincoln Laboratory ETS, New Mexico. Observers M. Bezpalko, L. Manguso,
D. Torres, R. Kracke, M. Blythe, H. Love, G. Spitz. Measurers J. Stuart,
J. Kommers. 1.0-m f/2.15 reflector + CCD.
Orbital elements:
2006 MV1 Earth MOID = 0.0066 AU
Epoch 2006 Mar. 6.0 TT = JDT 2453800.5 MPC
M 273.29193 (2000.0) P Q
n 0.65850663 Peri. 30.20494 +0.43715635 +0.89588221
a 1.3084665 Node 265.81891 -0.84026635 +0.37538809
e 0.2359890 Incl. 4.56082 -0.32069733 +0.23765278
P 1.50 H 26.6 G 0.15 U 7
From 8 observations 2006 June 19-20.
Ephemeris:
2006 MV1 a,e,i = 1.31, 0.24, 5 q = 0.9997
Date TT R. A. (2000) Decl. Delta r Elong. Phase V
2006 06 14 14 47.57 -31 04.3 0.0219 1.033 143.6 35.7 19.8
2006 06 15 14 53.76 -28 53.5 0.0192 1.031 144.1 35.3 19.5
2006 06 16 15 01.67 -25 58.3 0.0165 1.029 144.8 34.7 19.2
2006 06 17 15 12.02 -21 54.5 0.0139 1.027 145.7 33.8 18.8
2006 06 18 15 26.01 -16 00.1 0.0115 1.026 146.6 33.1 18.3
2006 06 19 15 45.67 -07 02.5 0.00931 1.024 146.1 33.6 17.9
2006 06 20 16 14.65 +06 42.8 0.00758 1.022 141.4 38.3 17.6
2006 06 21 16 59.41 +25 51.6 0.00667 1.020 128.7 51.0 17.7
2006 06 22 18 09.45 +45 27.7 0.00692 1.019 111.1 68.6 18.3
2006 06 23 19 46.99 +57 49.9 0.00821 1.017 96.0 83.5 19.1
2006 06 24 21 26.36 +62 00.9 0.0102 1.016 86.0 93.4 20.0
2006 06 25 22 39.44 +61 55.6 0.0124 1.014 79.8 99.5 20.7
2006 06 26 23 26.41 +60 32.0 0.0149 1.013 75.9 103.3 21.3
2006 06 27 23 56.81 +58 58.1 0.0175 1.012 73.3 105.7 21.8
2006 06 28 00 17.47 +57 32.8 0.0202 1.010 71.7 107.2 22.2
2006 06 29 00 32.25 +56 19.4 0.0228 1.009 70.6 108.2 22.5
2006 06 30 00 43.31 +55 17.2 0.0256 1.008 69.9 108.7 22.7
2006 07 01 00 51.89 +54 24.3 0.0283 1.007 69.5 109.0 23.0
2006 07 02 00 58.77 +53 39.2 0.0310 1.006 69.3 109.0 23.2
2006 07 03 01 04.42 +53 00.3 0.0338 1.005 69.3 108.9 23.4
2006 07 04 01 09.19 +52 26.5 0.0365 1.004 69.4 108.7 23.5
Kyle E. Smalley (C) Copyright 2006 MPC M.P.E.C. 2006-M15
Read MPEC 2006-M14
Read MPEC 2006-M16
Our Web policy. Index to the CBAT/MPC/ICQ pages.